GW4247 Weather Reports


Display with metric or nautical units.
time (UTC)temp
F
wind
direction
speed
MPH
gust
MPH
rain 1hr
in
rain 24hr
in
rain mn
in
humidity
%
barometer
mb
20260508125516 51 273 2.0 3.0 0.00 0.00 0.00 66 1004.3
20260508125015 50 281 2.0 3.0 0.00 0.00 0.00 67 1004.4
20260508124512 50 322 3.0 6.0 0.00 0.00 0.00 67 1004.3
20260508124009 50 307 2.0 2.0 0.00 0.00 0.00 68 1004.1
20260508123508 50 294 2.0 3.0 0.00 0.00 0.00 67 1004.2
20260508123004 50 279 3.0 6.0 0.00 0.00 0.00 67 1004.3
20260508122501 50 289 3.0 4.0 0.00 0.00 0.00 68 1004.3
20260508121958 49 198 4.0 4.0 0.00 0.00 0.00 69 1004.4
20260508121456 49 301 3.0 4.0 0.00 0.00 0.00 69 1004.3
20260508120953 49 275 1.0 2.0 0.00 0.00 0.00 70 1004.2
20260508120451 48 273 2.0 3.0 0.00 0.00 0.00 72 1004.3
20260508115949 48 288 4.0 4.0 0.00 0.00 0.00 72 1004.5
20260508115446 47 290 3.0 3.0 0.00 0.00 0.00 73 1004.2
20260508114942 47 271 1.0 2.0 0.00 0.00 0.00 74 1004.1
20260508114440 46 274 1.0 1.0 0.00 0.00 0.00 74 1004.1
20260508113936 46 314 2.0 3.0 0.00 0.00 0.00 75 1004.2
20260508113434 45 285 1.0 1.0 0.00 0.00 0.00 78 1004.0
20260508112931 44 303 2.0 2.0 0.00 0.00 0.00 78 1004.1
20260508112427 44 280 0.0 0.0 0.00 0.00 0.00 79 1004.0
20260508111924 44 281 1.0 1.0 0.00 0.00 0.00 79 1004.0
20260508111421 44 279 1.0 1.0 0.00 0.00 0.00 79 1004.1
20260508110918 43 279 1.0 1.0 0.00 0.00 0.00 80 1003.9
20260508110417 43 284 0.0 1.0 0.00 0.00 0.00 80 1003.9
20260508105915 43 279 1.0 1.0 0.00 0.00 0.00 81 1003.8
20260508105412 43 280 1.0 1.0 0.00 0.00 0.00 80 1003.8
20260508104909 43 280 0.0 1.0 0.00 0.00 0.00 81 1003.8
20260508104407 43 284 0.0 0.0 0.00 0.00 0.00 81 1003.9
20260508103903 42 280 1.0 1.0 0.00 0.00 0.00 82 1003.8
20260508103401 42 282 0.0 0.0 0.00 0.00 0.00 82 1003.5
20260508102858 42 279 0.0 0.0 0.00 0.00 0.00 82 1003.7
20260508102356 42 284 0.0 0.0 0.00 0.00 0.00 82 1003.5
20260508101853 42 280 0.0 0.0 0.00 0.00 0.00 82 1003.6
20260508101350 42 283 0.0 0.0 0.00 0.00 0.00 82 1003.6
20260508100848 42 280 0.0 1.0 0.00 0.00 0.00 82 1003.5
20260508100346 42 281 0.0 0.0 0.00 0.00 0.00 82 1003.5
20260508095841 42 279 0.0 0.0 0.00 0.00 0.00 81 1003.5
20260508095340 42 275 0.0 0.0 0.00 0.00 0.00 81 1003.6
20260508094836 42 288 0.0 1.0 0.00 0.00 0.00 81 1003.5
20260508094333 42 284 0.0 1.0 0.00 0.00 0.00 81 1003.4
20260508093830 42 277 1.0 1.0 0.00 0.00 0.00 82 1003.5
20260508093327 42 281 0.0 1.0 0.00 0.00 0.00 82 1003.7
20260508092825 42 277 0.0 0.0 0.00 0.00 0.00 83 1003.6
20260508092323 42 281 0.0 0.0 0.00 0.00 0.00 83 1003.7
20260508091821 42 274 0.0 0.0 0.00 0.00 0.00 83 1003.6
20260508091317 41 278 0.0 0.0 0.00 0.00 0.00 84 1003.6
20260508090815 42 278 0.0 0.0 0.00 0.00 0.00 82 1003.8
20260508090314 42 274 0.0 0.0 0.00 0.00 0.00 81 1003.8
20260508085809 42 277 0.0 0.0 0.00 0.00 0.00 81 1003.7
20260508085307 42 279 0.0 1.0 0.00 0.00 0.00 82 1003.6
20260508084802 42 279 0.0 0.0 0.00 0.00 0.00 83 1003.7
20260508084259 41 278 1.0 1.0 0.00 0.00 0.00 84 1003.7
20260508083757 41 275 0.0 0.0 0.00 0.00 0.00 84 1003.5
20260508083254 41 275 0.0 0.0 0.00 0.00 0.00 85 1003.6
20260508082753 41 275 0.0 0.0 0.00 0.00 0.00 86 1003.7
20260508082251 41 274 0.0 0.0 0.00 0.00 0.00 85 1003.5
20260508081748 41 277 0.0 0.0 0.00 0.00 0.00 84 1003.6
20260508081245 42 277 0.0 0.0 0.00 0.00 0.00 84 1003.7
20260508080742 42 276 0.0 0.0 0.00 0.00 0.00 83 1003.5
20260508080240 43 276 0.0 0.0 0.00 0.00 0.00 82 1003.8
20260508075736 43 276 0.0 0.0 0.00 0.00 0.00 82 1003.5
20260508075233 43 277 0.0 0.0 0.00 0.00 0.00 83 1003.8
20260508074731 44 280 0.0 0.0 0.00 0.00 0.00 83 1003.6
20260508074228 44 280 0.0 0.0 0.00 0.00 0.00 82 1003.6
20260508073725 44 280 0.0 0.0 0.00 0.00 0.00 82 1003.7
20260508073223 45 282 0.0 0.0 0.00 0.00 0.00 82 1003.8
20260508072719 45 282 0.0 0.0 0.00 0.00 0.00 81 1003.8
20260508072216 45 269 0.0 0.0 0.00 0.00 0.00 82 1003.8
20260508071713 46 279 0.0 0.0 0.00 0.00 0.00 82 1004.0
20260508071212 46 279 0.0 0.0 0.00 0.00 0.00 81 1004.2
20260508070708 46 279 0.0 0.0 0.00 0.00 0.00 79 1004.2
20260508070207 46 279 0.0 0.0 0.00 0.00 0.00 78 1004.4
20260508065704 47 273 0.0 0.0 0.00 0.00 0.00 77 1004.1
20260508065202 47 272 0.0 0.0 0.00 0.00 0.00 75 1004.1
20260508064659 47 272 0.0 0.0 0.00 0.00 0.00 73 1004.3
20260508064157 47 267 0.0 0.0 0.00 0.00 0.00 75 1004.3
20260508063654 47 279 0.0 0.0 0.00 0.00 0.00 72 1004.5
20260508063152 47 279 0.0 0.0 0.00 0.00 0.00 70 1004.3
20260508062649 48 267 0.0 0.0 0.00 0.00 0.00 70 1004.5
20260508062146 48 275 1.0 1.0 0.00 0.00 0.00 69 1004.8
20260508061643 48 256 2.0 2.0 0.00 0.00 0.00 67 1004.3
20260508061141 48 281 0.0 0.0 0.00 0.00 0.00 67 1004.3
20260508060637 48 277 2.0 2.0 0.00 0.00 0.00 66 1004.2
20260508060135 48 284 2.0 3.0 0.00 0.00 0.00 67 1004.0
20260508055630 47 281 1.0 1.0 0.00 0.00 0.00 68 1004.0
20260508055127 47 287 0.0 0.0 0.00 0.00 0.00 68 1003.8
20260508054624 47 281 0.0 0.0 0.00 0.00 0.00 70 1003.9
20260508054121 47 281 1.0 1.0 0.00 0.00 0.00 70 1004.1
20260508053618 47 286 1.0 1.0 0.00 0.00 0.00 70 1003.9
20260508053116 46 283 0.0 0.0 0.00 0.00 0.00 72 1003.9
20260508052613 45 279 0.0 1.0 0.00 0.00 0.00 74 1004.2
20260508052110 45 278 0.0 0.0 0.00 0.00 0.00 76 1004.1
20260508051606 44 280 0.0 0.0 0.00 0.00 0.00 78 1004.1
20260508051101 44 285 0.0 0.0 0.00 0.00 0.00 80 1004.0
20260508050558 44 273 0.0 0.0 0.00 0.00 0.00 83 1004.0
20260508050056 44 282 0.0 0.0 0.00 0.00 0.00 84 1004.2
20260508045552 44 283 0.0 0.0 0.00 0.00 0.00 85 1004.3
20260508045050 44 282 0.0 0.0 0.00 0.00 0.00 87 1004.3
20260508044547 44 281 0.0 0.0 0.00 0.00 0.00 89 1004.3
20260508044043 44 283 0.0 0.0 0.00 0.00 0.00 89 1004.3
20260508043539 43 284 0.0 0.0 0.00 0.00 0.00 89 1004.2
20260508043037 43 284 0.0 0.0 0.00 0.00 0.00 89 1004.1
20260508042533 42 283 0.0 0.0 0.00 0.00 0.00 89 1004.1
20260508042031 42 283 0.0 0.0 0.00 0.00 0.00 89 1004.0
20260508041526 42 284 0.0 0.0 0.00 0.00 0.00 89 1004.0
20260508041023 42 285 0.0 0.0 0.00 0.00 0.00 89 1004.3
20260508040520 42 280 0.0 0.0 0.00 0.00 0.00 88 1004.2
20260508040018 42 285 0.0 0.0 0.00 0.00 0.00 87 1004.1
20260508035515 42 286 0.0 0.0 0.00 0.00 0.00 87 1004.1
20260508035012 42 280 0.0 0.0 0.00 0.00 0.00 88 1004.1
20260508034509 42 284 0.0 0.0 0.00 0.00 0.00 89 1004.1
20260508034006 42 281 0.0 0.0 0.00 0.00 0.00 89 1004.2
20260508033504 42 281 0.0 0.0 0.00 0.00 0.00 89 1004.2
20260508033001 41 283 0.0 0.0 0.00 0.00 0.00 89 1004.1
20260508032458 41 283 0.0 0.0 0.00 0.00 0.00 89 1004.1
20260508031955 41 281 0.0 0.0 0.00 0.00 0.00 90 1004.0
20260508031453 41 294 0.0 0.0 0.00 0.00 0.00 91 1003.8
20260508030947 41 281 0.0 0.0 0.00 0.00 0.00 91 1004.0
20260508030445 41 281 0.0 0.0 0.00 0.00 0.00 91 1004.1
20260508025942 41 286 0.0 0.0 0.00 0.00 0.00 91 1004.0
20260508025433 41 286 0.0 0.0 0.00 0.00 0.00 90 1004.2
20260508024930 41 279 0.0 0.0 0.00 0.00 0.00 89 1004.4
20260508024426 41 278 0.0 0.0 0.00 0.00 0.00 89 1004.3
20260508023923 41 283 0.0 0.0 0.00 0.00 0.00 89 1004.1
20260508023420 42 290 0.0 0.0 0.00 0.00 0.00 89 1004.0
20260508022917 42 283 0.0 0.0 0.00 0.00 0.00 88 1004.2
20260508022412 42 286 0.0 0.0 0.00 0.00 0.00 87 1004.0
20260508021909 42 283 0.0 0.0 0.00 0.00 0.00 87 1004.1
20260508021406 42 283 0.0 0.0 0.00 0.00 0.00 85 1004.1
20260508020901 42 285 0.0 0.0 0.00 0.00 0.00 85 1004.0
20260508020400 42 278 0.0 0.0 0.00 0.00 0.00 83 1004.1
20260508015856 42 282 0.0 0.0 0.00 0.00 0.00 82 1004.2
20260508015354 43 281 0.0 0.0 0.00 0.00 0.00 81 1003.9
20260508014850 43 278 0.0 0.0 0.00 0.00 0.00 80 1004.2
20260508014348 43 273 0.0 0.0 0.00 0.00 0.00 79 1004.3
20260508013843 43 279 0.0 0.0 0.00 0.00 0.00 77 1004.0
20260508013340 44 281 0.0 0.0 0.00 0.00 0.00 74 1004.2
20260508012837 44 280 0.0 0.0 0.00 0.00 0.00 72 1004.0
20260508012334 44 277 0.0 0.0 0.00 0.00 0.00 70 1003.9
20260508011832 45 278 0.0 0.0 0.00 0.00 0.00 68 1004.0
20260508011330 45 281 0.0 0.0 0.00 0.00 0.00 69 1003.8
20260508010826 45 281 0.0 0.0 0.00 0.00 0.00 68 1003.7
20260508010324 46 275 0.0 0.0 0.00 0.00 0.00 66 1003.8
20260508005821 46 281 0.0 0.0 0.00 0.00 0.00 65 1003.6
20260508005318 47 279 0.0 0.0 0.00 0.00 0.00 65 1003.7
20260508004814 47 279 0.0 0.0 0.00 0.00 0.00 63 1003.7
20260508004310 48 279 0.0 0.0 0.00 0.00 0.00 63 1003.7
20260508003806 49 276 0.0 0.0 0.00 0.00 0.00 59 1003.7
20260508003304 50 273 0.0 0.0 0.00 0.00 0.00 57 1003.6
20260508002800 51 275 0.0 0.0 0.00 0.00 0.00 56 1003.5
20260508002258 52 279 0.0 0.0 0.00 0.00 0.00 54 1003.5
20260508001753 52 268 1.0 1.0 0.00 0.00 0.00 53 1003.4
20260508001249 53 275 0.0 0.0 0.00 0.00 0.00 51 1003.4
20260508000746 53 302 0.0 0.0 0.00 0.00 0.00 53 1003.4
20260508000243 54 278 0.0 0.0 0.00 0.00 0.00 48 1003.4
20260507235739 55 282 0.0 0.0 0.00 0.00 0.00 47 1003.2
20260507235237 55 276 0.0 0.0 0.00 0.00 0.00 46 1003.4
20260507234734 55 268 2.0 2.0 0.00 0.00 0.00 44 1003.4
20260507234230 56 268 0.0 0.0 0.00 0.00 0.00 45 1003.3
20260507233727 57 279 2.0 2.0 0.00 0.00 0.00 42 1003.4
20260507233225 59 280 0.0 0.0 0.00 0.00 0.00 42 1003.4
20260507232721 59 211 1.0 2.0 0.00 0.00 0.00 42 1003.2
20260507232219 58 225 2.0 2.0 0.00 0.00 0.00 41 1003.2
20260507231715 59 263 0.0 1.0 0.00 0.00 0.00 41 1003.3
20260507231212 59 279 1.0 1.0 0.00 0.00 0.00 41 1003.2
20260507230709 59 250 1.0 2.0 0.00 0.00 0.00 41 1003.2
20260507230207 58 281 1.0 1.0 0.00 0.00 0.00 43 1003.3
20260507225705 57 276 0.0 0.0 0.00 0.00 0.00 43 1003.4
20260507225202 57 229 0.0 1.0 0.00 0.00 0.00 45 1003.4
20260507224658 55 267 1.0 4.0 0.00 0.00 0.00 45 1003.4
20260507224155 55 312 2.0 4.0 0.00 0.00 0.00 44 1003.5
20260507223651 55 269 4.0 4.0 0.00 0.00 0.00 43 1003.6
20260507223148 57 287 2.0 2.0 0.00 0.00 0.00 43 1003.5
20260507222645 56 298 2.0 2.0 0.00 0.00 0.00 42 1003.4
20260507222141 59 225 1.0 2.0 0.00 0.00 0.00 41 1003.6
20260507221638 60 255 0.0 1.0 0.00 0.00 0.00 40 1003.5
20260507221134 60 36 1.0 2.0 0.00 0.00 0.00 41 1003.5
20260507220631 62 277 0.0 1.0 0.00 0.00 0.00 41 1003.4
20260507220129 61 9 0.0 0.0 0.00 0.00 0.00 43 1003.5
20260507215625 60 82 1.0 2.0 0.00 0.00 0.00 43 1003.5
20260507215123 59 293 1.0 3.0 0.00 0.00 0.00 42 1003.4
20260507214620 59 316 2.0 2.0 0.00 0.00 0.00 42 1003.4
20260507214116 59 295 2.0 2.0 0.00 0.00 0.00 40 1003.4
20260507213612 59 275 4.0 7.0 0.00 0.00 0.00 38 1003.3
20260507213110 62 209 2.0 3.0 0.00 0.00 0.00 36 1003.1
20260507212605 60 245 2.0 2.0 0.00 0.00 0.00 42 1003.2
20260507212102 61 258 4.0 6.0 0.00 0.00 0.00 41 1003.1
20260507211559 61 277 1.0 1.0 0.00 0.00 0.00 43 1003.1
20260507211055 60 279 4.0 4.0 0.00 0.00 0.00 43 1003.3
20260507210553 60 131 4.0 7.0 0.00 0.00 0.00 41 1003.1
20260507210049 61 259 2.0 3.0 0.00 0.00 0.00 41 1003.0
20260507205546 61 279 0.0 0.0 0.00 0.00 0.00 44 1003.1
20260507205042 61 236 3.0 4.0 0.00 0.00 0.00 41 1002.9
20260507204538 61 285 0.0 1.0 0.00 0.00 0.00 44 1002.8
20260507204036 60 255 1.0 2.0 0.00 0.00 0.00 43 1002.9
20260507203534 58 146 2.0 2.0 0.00 0.00 0.00 46 1002.8
20260507203031 60 242 2.0 2.0 0.00 0.00 0.00 41 1002.7
20260507202527 61 256 1.0 2.0 0.00 0.00 0.00 43 1002.7
20260507202023 60 283 1.0 2.0 0.00 0.00 0.00 43 1002.8
20260507201519 58 309 2.0 4.0 0.00 0.00 0.00 49 1003.0
20260507201015 57 286 4.0 4.0 0.00 0.00 0.00 46 1003.0
20260507200511 57 281 2.0 2.0 0.00 0.00 0.00 48 1002.9
20260507200007 58 287 2.0 2.0 0.00 0.00 0.00 46 1003.1
20260507195504 59 299 1.0 1.0 0.00 0.00 0.00 49 1002.9
20260507195002 58 42 2.0 2.0 0.00 0.00 0.00 48 1003.0
20260507194458 60 272 2.0 4.0 0.00 0.00 0.00 43 1003.0
20260507193954 60 312 6.0 7.0 0.00 0.00 0.00 43 1003.1
20260507193452 57 206 4.0 7.0 0.00 0.00 0.00 43 1003.1
20260507192948 60 251 2.0 3.0 0.00 0.00 0.00 45 1003.1
20260507192444 58 277 1.0 1.0 0.00 0.00 0.00 48 1003.2
20260507191941 57 331 5.0 7.0 0.00 0.00 0.00 48 1003.1
20260507191437 58 251 6.0 8.0 0.00 0.00 0.00 48 1003.2
20260507190934 57 275 5.0 7.0 0.00 0.00 0.00 47 1003.2
20260507190432 58 304 8.0 9.0 0.00 0.00 0.00 48 1003.2
20260507185930 57 280 8.0 11.0 0.00 0.00 0.00 46 1003.1
20260507185427 58 284 5.0 7.0 0.00 0.00 0.00 46 1003.3
20260507184924 58 289 4.0 7.0 0.00 0.00 0.00 47 1003.1
20260507184422 58 312 5.0 6.0 0.00 0.00 0.00 46 1003.1
20260507183919 58 274 2.0 3.0 0.00 0.00 0.00 47 1003.5
20260507183416 58 298 2.0 6.0 0.00 0.00 0.00 48 1003.5
20260507182913 57 305 3.0 4.0 0.00 0.00 0.00 46 1003.4
20260507182409 57 301 4.0 6.0 0.00 0.00 0.00 48 1003.2
20260507181906 58 221 5.0 7.0 0.00 0.00 0.00 46 1003.1
20260507181401 58 273 3.0 4.0 0.00 0.00 0.00 48 1003.0
20260507180859 57 285 5.0 8.0 0.00 0.00 0.00 46 1003.3
20260507180355 57 270 1.0 2.0 0.00 0.00 0.00 52 1003.2
20260507175851 58 263 4.0 7.0 0.00 0.00 0.00 47 1003.4
20260507175348 58 280 5.0 6.0 0.00 0.00 0.00 45 1003.4
20260507174846 57 240 1.0 2.0 0.00 0.00 0.00 47 1003.6
20260507174343 56 320 5.0 7.0 0.00 0.00 0.00 47 1003.5
20260507173840 56 185 4.0 4.0 0.00 0.00 0.00 47 1003.6
20260507173337 56 273 2.0 2.0 0.00 0.00 0.00 50 1003.8
20260507172833 56 248 2.0 3.0 0.00 0.00 0.00 50 1003.8
20260507172330 55 326 4.0 6.0 0.00 0.00 0.00 47 1003.7
20260507171826 56 280 5.0 6.0 0.00 0.00 0.00 47 1003.9
20260507171323 55 195 4.0 7.0 0.00 0.00 0.00 46 1003.8
20260507170820 55 263 4.0 4.0 0.00 0.00 0.00 49 1003.8
20260507170317 55 355 7.0 8.0 0.00 0.00 0.00 48 1004.0
20260507165813 56 266 4.0 4.0 0.00 0.00 0.00 46 1004.0
20260507165309 56 268 2.0 3.0 0.00 0.00 0.00 48 1004.0
20260507164805 55 281 1.0 2.0 0.00 0.00 0.00 54 1004.3
20260507164302 55 275 5.0 10.0 0.00 0.00 0.00 48 1004.1
20260507163759 55 269 1.0 1.0 0.00 0.00 0.00 51 1004.1
20260507163257 54 230 5.0 7.0 0.00 0.00 0.00 48 1004.3
20260507162752 55 267 7.0 8.0 0.00 0.00 0.00 49 1004.1
20260507162249 54 328 5.0 6.0 0.00 0.00 0.00 53 1004.0
20260507161746 55 321 6.0 7.0 0.00 0.00 0.00 48 1004.0
20260507161242 54 241 4.0 4.0 0.00 0.00 0.00 49 1004.2
20260507160738 54 289 9.0 13.0 0.00 0.00 0.00 48 1004.1
20260507160235 54 325 2.0 3.0 0.00 0.00 0.00 49 1004.1
20260507155731 54 273 3.0 8.0 0.00 0.00 0.00 49 1004.0
20260507155227 54 266 4.0 4.0 0.00 0.00 0.00 46 1004.0
20260507154724 54 270 5.0 8.0 0.00 0.00 0.00 48 1003.9
20260507154221 54 277 5.0 7.0 0.00 0.00 0.00 47 1004.1
20260507153717 54 248 5.0 7.0 0.00 0.00 0.00 50 1003.9
20260507153214 54 259 5.0 7.0 0.00 0.00 0.00 48 1003.9
20260507152711 54 273 2.0 2.0 0.00 0.00 0.00 50 1003.9
20260507152207 54 256 6.0 8.0 0.00 0.00 0.00 50 1003.6
20260507151703 54 249 1.0 1.0 0.00 0.00 0.00 49 1003.9
20260507151200 53 277 5.0 6.0 0.00 0.00 0.00 48 1003.9
20260507150657 54 301 7.0 8.0 0.00 0.00 0.00 49 1003.9
20260507150153 54 281 4.0 4.0 0.00 0.00 0.00 52 1003.9
20260507145649 53 224 2.0 3.0 0.00 0.00 0.00 52 1004.0
20260507145146 53 259 4.0 4.0 0.00 0.00 0.00 52 1004.1
20260507144643 53 321 4.0 6.0 0.00 0.00 0.00 53 1004.0
20260507144141 53 268 5.0 6.0 0.00 0.00 0.00 51 1004.1
20260507143637 54 272 2.0 3.0 0.00 0.00 0.00 52 1003.9
20260507143135 53 258 1.0 2.0 0.00 0.00 0.00 54 1004.0
20260507142630 53 299 2.0 3.0 0.00 0.00 0.00 54 1004.0
20260507142127 54 274 1.0 1.0 0.00 0.00 0.00 55 1004.1
20260507141623 54 273 0.0 1.0 0.00 0.00 0.00 55 1004.0
20260507141120 52 238 2.0 3.0 0.00 0.00 0.00 56 1004.2
20260507140616 51 243 1.0 1.0 0.00 0.00 0.00 57 1004.1
20260507140114 52 267 2.0 4.0 0.00 0.00 0.00 59 1004.1
20260507135611 51 307 1.0 2.0 0.00 0.00 0.00 57 1004.2
20260507135109 51 263 3.0 4.0 0.00 0.00 0.00 59 1004.4
20260507134604 51 268 2.0 3.0 0.00 0.00 0.00 60 1004.3
20260507134101 51 236 2.0 2.0 0.00 0.00 0.00 61 1004.3
20260507133557 51 260 2.0 3.0 0.00 0.00 0.00 62 1004.2
20260507133055 50 280 1.0 2.0 0.00 0.00 0.00 62 1004.4
20260507132551 50 282 2.0 3.0 0.00 0.00 0.00 63 1004.4
20260507132048 51 324 2.0 3.0 0.00 0.00 0.00 63 1004.5
20260507131544 50 292 0.0 1.0 0.00 0.00 0.00 64 1004.4
20260507131042 50 7 0.0 1.0 0.00 0.00 0.00 67 1004.6
20260507130539 48 263 2.0 2.0 0.00 0.00 0.00 68 1004.5
20260507130037 48 260 1.0 1.0 0.00 0.00 0.00 69 1004.4